When you browse on this site, cookies collect data to enhance your experience and personalize the content and advertising you see.
Visit our Privacy Policy to learn more. By continuing to use the site, you agree to this use of cookies and data.

Stündliche Wetter Kaprun

Heute, 21 September, Montag

Zeit Temperatur Niederschläge Wind Luftdruck Luftfeuchtigkeit
00:00 +7°C° 0 mm 2 m/S 598 mmHg 94%
01:00 +7°C° 0 mm 2 m/S 598 mmHg 94%
02:00 +8°C° 0 mm 1 m/S 598 mmHg 94%
03:00 +8°C° 0 mm 1 m/S 598 mmHg 93%
04:00 +7°C° 0 mm 1 m/S 597 mmHg 93%
05:00 +7°C° 0 mm 1 m/S 598 mmHg 92%
06:00 +8°C° 0 mm 1 m/S 598 mmHg 91%
07:00 +8°C° 0 mm 1 m/S 598 mmHg 91%
08:00 +10°C° 0.1 mm 1 m/S 599 mmHg 84%
09:00 +12°C° 0.1 mm 1 m/S 600 mmHg 77%
10:00 +14°C° 0.1 mm 1 m/S 601 mmHg 71%
11:00 +14°C° 0.8 mm 1 m/S 601 mmHg 70%
12:00 +15°C° 0.8 mm 1 m/S 601 mmHg 70%
13:00 +15°C° 0.8 mm 1 m/S 601 mmHg 70%
14:00 +15°C° 0.9 mm 1 m/S 600 mmHg 73%
15:00 +14°C° 0.9 mm 1 m/S 600 mmHg 76%
16:00 +14°C° 0.9 mm 1 m/S 600 mmHg 79%
17:00 +12°C° 0.6 mm 1 m/S 599 mmHg 84%
18:00 +11°C° 0.6 mm 1 m/S 599 mmHg 88%
19:00 +9°C° 0.6 mm 1 m/S 598 mmHg 92%
20:00 +8°C° 0.1 mm 2 m/S 598 mmHg 92%
21:00 +7°C° 0.1 mm 2 m/S 598 mmHg 92%
22:00 +7°C° 0.1 mm 2 m/S 598 mmHg 93%
23:00 +7°C° 0 mm 2 m/S 598 mmHg 93%

Morgen, 22 September, Dienstag

Zeit Temperatur Niederschläge Wind Luftdruck Luftfeuchtigkeit
00:00 +6°C° 0 mm 2 m/S 597 mmHg 93%
01:00 +6°C° 0 mm 2 m/S 597 mmHg 93%
02:00 +6°C° 0 mm 2 m/S 597 mmHg 93%
03:00 +6°C° 0 mm 2 m/S 597 mmHg 93%
04:00 +6°C° 0 mm 2 m/S 597 mmHg 93%
05:00 +6°C° 0 mm 2 m/S 597 mmHg 92%
06:00 +6°C° 0 mm 2 m/S 597 mmHg 91%
07:00 +7°C° 0 mm 2 m/S 597 mmHg 90%
08:00 +10°C° 0 mm 1 m/S 598 mmHg 81%
09:00 +12°C° 0 mm 1 m/S 599 mmHg 72%
10:00 +14°C° 0 mm 1 m/S 600 mmHg 63%
11:00 +15°C° 0.2 mm 1 m/S 600 mmHg 62%
12:00 +15°C° 0.2 mm 1 m/S 599 mmHg 60%
13:00 +16°C° 0.2 mm 2 m/S 599 mmHg 59%
14:00 +15°C° 0.7 mm 2 m/S 599 mmHg 66%
15:00 +14°C° 0.7 mm 2 m/S 598 mmHg 73%
16:00 +13°C° 0.7 mm 2 m/S 597 mmHg 80%
17:00 +12°C° 0.7 mm 2 m/S 597 mmHg 84%
18:00 +9°C° 0.7 mm 2 m/S 596 mmHg 88%
19:00 +8°C° 0.7 mm 2 m/S 596 mmHg 93%
20:00 +7°C° 0.2 mm 2 m/S 595 mmHg 93%
21:00 +7°C° 0.2 mm 2 m/S 595 mmHg 93%
22:00 +6°C° 0.2 mm 2 m/S 595 mmHg 94%
23:00 +6°C° 0.1 mm 2 m/S 595 mmHg 94%

übermorgen, 23 September, Mittwoch

Zeit Temperatur Niederschläge Wind Luftdruck Luftfeuchtigkeit
00:00 +6°C° 0.1 mm 2 m/S 595 mmHg 94%
01:00 +6°C° 0.1 mm 2 m/S 595 mmHg 94%
02:00 +6°C° 0 mm 2 m/S 594 mmHg 93%
03:00 +7°C° 0 mm 1 m/S 594 mmHg 93%
04:00 +7°C° 0 mm 1 m/S 594 mmHg 93%
05:00 +7°C° 0.1 mm 1 m/S 594 mmHg 93%
06:00 +7°C° 0.1 mm 1 m/S 594 mmHg 92%
07:00 +8°C° 0.1 mm 1 m/S 595 mmHg 92%
08:00 +8°C° 0.5 mm 1 m/S 595 mmHg 91%
09:00 +9°C° 0.5 mm 1 m/S 595 mmHg 89%
10:00 +9°C° 0.5 mm 1 m/S 595 mmHg 88%
11:00 +9°C° 0.8 mm 1 m/S 595 mmHg 88%
12:00 +10°C° 0.8 mm 1 m/S 595 mmHg 87%
13:00 +10°C° 0.8 mm 1 m/S 595 mmHg 87%
14:00 +10°C° 0.3 mm 1 m/S 595 mmHg 85%
15:00 +9°C° 0.3 mm 0 m/S 595 mmHg 83%
16:00 +10°C° 0.3 mm 0 m/S 595 mmHg 81%
17:00 +8°C° 0.2 mm 0 m/S 595 mmHg 85%
18:00 +7°C° 0.2 mm 0 m/S 594 mmHg 89%
19:00 +6°C° 0.2 mm 0 m/S 594 mmHg 93%
20:00 +5°C° 0 mm 0 m/S 594 mmHg 92%
21:00 +6°C° 0 mm 1 m/S 593 mmHg 92%
22:00 +5°C° 0 mm 1 m/S 593 mmHg 91%
23:00 +5°C° 0 mm 1 m/S 593 mmHg 91%

24 September, Donnerstag

Zeit Temperatur Niederschläge Wind Luftdruck Luftfeuchtigkeit
00:00 +5°C° 0 mm 1 m/S 593 mmHg 90%
01:00 +5°C° 0 mm 1 m/S 593 mmHg 89%
02:00 +5°C° 0 mm 1 m/S 593 mmHg 88%
03:00 +5°C° 0 mm 1 m/S 593 mmHg 87%
04:00 +3°C° 0 mm 0 m/S 593 mmHg 87%
05:00 +5°C° 0 mm 1 m/S 594 mmHg 86%
06:00 +6°C° 0 mm 1 m/S 594 mmHg 85%
07:00 +7°C° 0 mm 1 m/S 595 mmHg 84%
08:00 +8°C° 0 mm 1 m/S 596 mmHg 77%
09:00 +10°C° 0 mm 1 m/S 597 mmHg 70%
10:00 +12°C° 0 mm 1 m/S 598 mmHg 63%
11:00 +13°C° 0 mm 1 m/S 598 mmHg 62%
12:00 +13°C° 0 mm 2 m/S 598 mmHg 60%
13:00 +14°C° 0 mm 2 m/S 598 mmHg 59%
14:00 +14°C° 0.1 mm 2 m/S 598 mmHg 63%
15:00 +13°C° 0.1 mm 2 m/S 597 mmHg 67%
16:00 +13°C° 0.1 mm 2 m/S 597 mmHg 71%
17:00 +10°C° 0 mm 3 m/S 596 mmHg 78%
18:00 +8°C° 0 mm 3 m/S 595 mmHg 85%
19:00 +7°C° 0 mm 3 m/S 594 mmHg 92%
20:00 +7°C° 0 mm 3 m/S 594 mmHg 91%
21:00 +7°C° 0 mm 3 m/S 594 mmHg 90%
22:00 +7°C° 0 mm 3 m/S 594 mmHg 89%
23:00 +7°C° 0.1 mm 3 m/S 593 mmHg 90%

25 September, Freitag

Zeit Temperatur Niederschläge Wind Luftdruck Luftfeuchtigkeit
00:00 +7°C° 0.1 mm 3 m/S 593 mmHg 90%
01:00 +7°C° 0.1 mm 2 m/S 593 mmHg 91%
02:00 +7°C° 0.6 mm 2 m/S 592 mmHg 93%
03:00 +6°C° 0.6 mm 2 m/S 592 mmHg 95%
04:00 +6°C° 0.6 mm 2 m/S 592 mmHg 97%
05:00 +6°C° 2.3 mm 2 m/S 591 mmHg 98%
06:00 +5°C° 2.3 mm 2 m/S 591 mmHg 98%
07:00 +5°C° 2.3 mm 2 m/S 591 mmHg 99%
08:00 +4°C° 3.5 mm 2 m/S 590 mmHg 98%
09:00 +4°C° 3.5 mm 2 m/S 590 mmHg 98%
10:00 +3°C° 3.5 mm 2 m/S 590 mmHg 98%
11:00 +2°C° 6.3 mm 2 m/S 589 mmHg 98%
12:00 +1°C° 6.3 mm 2 m/S 589 mmHg 98%
13:00 0°C° 6.3 mm 1 m/S 588 mmHg 98%
14:00 +1°C° 1.8 mm 1 m/S 588 mmHg 98%
15:00 +1°C° 1.8 mm 1 m/S 588 mmHg 98%
16:00 +1°C° 1.8 mm 1 m/S 588 mmHg 98%
17:00 -2°C° 0.7 mm 2 m/S 588 mmHg 98%
18:00 -2°C° 0.7 mm 2 m/S 588 mmHg 98%
19:00 -2°C° 0.7 mm 2 m/S 588 mmHg 98%
20:00 -3°C° 2 mm 2 m/S 588 mmHg 98%
21:00 -3°C° 2 mm 2 m/S 588 mmHg 98%
22:00 -4°C° 2 mm 2 m/S 588 mmHg 98%
23:00 -4°C° 2.9 mm 2 m/S 587 mmHg 98%

26 September, Samstag

Zeit Temperatur Niederschläge Wind Luftdruck Luftfeuchtigkeit
00:00 -4°C° 2.9 mm 2 m/S 587 mmHg 98%
01:00 -5°C° 2.9 mm 2 m/S 587 mmHg 98%
02:00 -5°C° 2.6 mm 2 m/S 586 mmHg 98%
03:00 -5°C° 2.6 mm 2 m/S 586 mmHg 98%
04:00 -5°C° 2.6 mm 2 m/S 586 mmHg 98%
05:00 -6°C° 2 mm 3 m/S 586 mmHg 98%
06:00 -7°C° 2 mm 3 m/S 586 mmHg 98%
07:00 -7°C° 2 mm 3 m/S 586 mmHg 98%
08:00 -6°C° 1.1 mm 3 m/S 587 mmHg 97%
09:00 -6°C° 1.1 mm 3 m/S 587 mmHg 97%
10:00 -7°C° 1.1 mm 4 m/S 587 mmHg 97%
11:00 -6°C° 0.5 mm 3 m/S 587 mmHg 96%
12:00 -5°C° 0.5 mm 3 m/S 587 mmHg 95%
13:00 -5°C° 0.5 mm 3 m/S 588 mmHg 94%
14:00 -5°C° 0.4 mm 3 m/S 588 mmHg 95%
15:00 -5°C° 0.4 mm 3 m/S 588 mmHg 95%
16:00 -4°C° 0.4 mm 2 m/S 588 mmHg 96%
17:00 -5°C° 0.2 mm 2 m/S 588 mmHg 96%
18:00 -6°C° 0.2 mm 2 m/S 588 mmHg 96%
19:00 -6°C° 0.2 mm 1 m/S 588 mmHg 96%
20:00 -7°C° 0.1 mm 2 m/S 588 mmHg 94%
21:00 -7°C° 0.1 mm 2 m/S 588 mmHg 93%
22:00 -8°C° 0.1 mm 2 m/S 589 mmHg 91%
23:00 -8°C° 0 mm 2 m/S 588 mmHg 90%
Mehr zeigen